When you browse on this site, cookies collect data to enhance your experience and personalize the content and advertising you see.
Visit our Privacy Policy to learn more. By continuing to use the site, you agree to this use of cookies and data.
  • In Portugal
  • List of Countries
  • For 7 days
  • Water Temperature
  • Satellite Maps
  • Weather Map
  • Weather Widgets
  • user-avatar
    Login

    Hourly Weather Lezhe

    Today, 25 May, Saturday

    Time Temperature Precipitation Wind Pressure Humidity
    00:00 +14°C° 0 mm 1 mps 736 mmHg 89%
    01:00 +14°C° 0 mm 2 mps 736 mmHg 89%
    02:00 +13°C° 0 mm 2 mps 736 mmHg 89%
    03:00 +13°C° 0 mm 2 mps 736 mmHg 90%
    04:00 +13°C° 0 mm 2 mps 736 mmHg 90%
    05:00 +15°C° 0 mm 2 mps 736 mmHg 84%
    06:00 +16°C° 0 mm 2 mps 736 mmHg 79%
    07:00 +19°C° 0 mm 1 mps 737 mmHg 74%
    08:00 +19°C° 0 mm 2 mps 737 mmHg 69%
    09:00 +20°C° 0 mm 2 mps 737 mmHg 65%
    10:00 +21°C° 0 mm 2 mps 737 mmHg 61%
    11:00 +21°C° 0.1 mm 2 mps 737 mmHg 60%
    12:00 +23°C° 0.1 mm 2 mps 737 mmHg 59%
    13:00 +22°C° 0.1 mm 3 mps 737 mmHg 58%
    14:00 +23°C° 0 mm 2 mps 737 mmHg 59%
    15:00 +23°C° 0 mm 2 mps 737 mmHg 60%
    16:00 +21°C° 0 mm 2 mps 737 mmHg 61%
    17:00 +21°C° 0 mm 1 mps 737 mmHg 68%
    18:00 +19°C° 0 mm 1 mps 737 mmHg 76%
    19:00 +15°C° 0 mm 0 mps 737 mmHg 84%
    20:00 +16°C° 0 mm 1 mps 737 mmHg 84%
    21:00 +15°C° 0 mm 1 mps 737 mmHg 84%
    22:00 +15°C° 0 mm 1 mps 738 mmHg 84%
    23:00 +15°C° 0 mm 1 mps 738 mmHg 83%

    Tomorrow, 26 May, Sunday

    Time Temperature Precipitation Wind Pressure Humidity
    00:00 +15°C° 0 mm 1 mps 738 mmHg 81%
    01:00 +15°C° 0 mm 1 mps 738 mmHg 80%
    02:00 +14°C° 0 mm 1 mps 738 mmHg 79%
    03:00 +14°C° 0 mm 1 mps 737 mmHg 77%
    04:00 +14°C° 0 mm 1 mps 737 mmHg 76%
    05:00 +16°C° 0 mm 1 mps 737 mmHg 70%
    06:00 +18°C° 0 mm 1 mps 737 mmHg 65%
    07:00 +20°C° 0 mm 1 mps 737 mmHg 59%
    08:00 +22°C° 0 mm 1 mps 737 mmHg 53%
    09:00 +24°C° 0 mm 1 mps 737 mmHg 47%
    10:00 +24°C° 0 mm 0 mps 737 mmHg 42%
    11:00 +27°C° 0 mm 1 mps 737 mmHg 41%
    12:00 +27°C° 0 mm 2 mps 737 mmHg 40%
    13:00 +27°C° 0 mm 2 mps 737 mmHg 39%
    14:00 +27°C° 0 mm 2 mps 737 mmHg 42%
    15:00 +26°C° 0 mm 2 mps 736 mmHg 45%
    16:00 +26°C° 0 mm 2 mps 736 mmHg 49%
    17:00 +24°C° 0 mm 2 mps 736 mmHg 56%
    18:00 +22°C° 0 mm 1 mps 736 mmHg 63%
    19:00 +18°C° 0 mm 0 mps 736 mmHg 71%
    20:00 +18°C° 0 mm 0 mps 736 mmHg 69%
    21:00 +20°C° 0 mm 1 mps 737 mmHg 67%
    22:00 +20°C° 0 mm 1 mps 737 mmHg 65%
    23:00 +20°C° 0 mm 1 mps 736 mmHg 66%

    Day after tomorrow, 27 May, Monday

    Time Temperature Precipitation Wind Pressure Humidity
    00:00 +18°C° 0 mm 2 mps 736 mmHg 66%
    01:00 +18°C° 0 mm 2 mps 736 mmHg 67%
    02:00 +18°C° 0 mm 2 mps 736 mmHg 67%
    03:00 +18°C° 0 mm 2 mps 736 mmHg 68%
    04:00 +18°C° 0 mm 2 mps 736 mmHg 68%
    05:00 +19°C° 0 mm 2 mps 736 mmHg 70%
    06:00 +21°C° 0 mm 1 mps 736 mmHg 71%
    07:00 +22°C° 0 mm 1 mps 736 mmHg 72%
    08:00 +22°C° 0.1 mm 1 mps 736 mmHg 70%
    09:00 +23°C° 0.1 mm 2 mps 735 mmHg 69%
    10:00 +23°C° 0.1 mm 2 mps 735 mmHg 67%
    11:00 +23°C° 0.4 mm 2 mps 735 mmHg 71%
    12:00 +23°C° 0.4 mm 2 mps 735 mmHg 75%
    13:00 +23°C° 0.4 mm 2 mps 735 mmHg 78%
    14:00 +25°C° 0.5 mm 2 mps 734 mmHg 71%
    15:00 +26°C° 0.5 mm 2 mps 734 mmHg 65%
    16:00 +27°C° 0.5 mm 1 mps 734 mmHg 58%
    17:00 +26°C° 0.1 mm 1 mps 733 mmHg 64%
    18:00 +24°C° 0.1 mm 2 mps 733 mmHg 69%
    19:00 +21°C° 0.1 mm 2 mps 733 mmHg 75%
    20:00 +21°C° 0.2 mm 1 mps 733 mmHg 79%
    21:00 +20°C° 0.2 mm 1 mps 733 mmHg 83%
    22:00 +17°C° 0.2 mm 0 mps 734 mmHg 86%
    23:00 +19°C° 0.2 mm 1 mps 733 mmHg 87%

    28 May, Tuesday

    Time Temperature Precipitation Wind Pressure Humidity
    00:00 +18°C° 0.2 mm 1 mps 733 mmHg 87%
    01:00 +18°C° 0.2 mm 1 mps 733 mmHg 87%
    02:00 +18°C° 0 mm 1 mps 733 mmHg 87%
    03:00 +16°C° 0 mm 1 mps 733 mmHg 86%
    04:00 +16°C° 0 mm 1 mps 733 mmHg 86%
    05:00 +19°C° 0 mm 1 mps 733 mmHg 81%
    06:00 +20°C° 0 mm 1 mps 733 mmHg 76%
    07:00 +22°C° 0 mm 1 mps 733 mmHg 70%
    08:00 +21°C° 0.7 mm 2 mps 733 mmHg 70%
    09:00 +22°C° 0.7 mm 4 mps 733 mmHg 69%
    10:00 +22°C° 0.7 mm 5 mps 733 mmHg 69%
    11:00 +22°C° 1 mm 5 mps 733 mmHg 71%
    12:00 +21°C° 1 mm 5 mps 732 mmHg 74%
    13:00 +21°C° 1 mm 5 mps 732 mmHg 76%
    14:00 +20°C° 1 mm 5 mps 732 mmHg 79%
    15:00 +20°C° 1 mm 5 mps 732 mmHg 81%
    16:00 +19°C° 1 mm 6 mps 732 mmHg 84%
    17:00 +19°C° 1.4 mm 5 mps 732 mmHg 86%
    18:00 +17°C° 1.4 mm 5 mps 732 mmHg 89%
    19:00 +17°C° 1.4 mm 4 mps 733 mmHg 92%
    20:00 +17°C° 1 mm 4 mps 733 mmHg 92%
    21:00 +16°C° 1 mm 5 mps 733 mmHg 92%
    22:00 +15°C° 1 mm 5 mps 734 mmHg 92%
    23:00 +15°C° 0.5 mm 4 mps 734 mmHg 92%

    29 May, Wednesday

    Time Temperature Precipitation Wind Pressure Humidity
    00:00 +17°C° 0.5 mm 4 mps 734 mmHg 91%
    01:00 +17°C° 0.5 mm 4 mps 734 mmHg 90%
    02:00 +15°C° 0.4 mm 4 mps 734 mmHg 90%
    03:00 +15°C° 0.4 mm 4 mps 734 mmHg 90%
    04:00 +15°C° 0.4 mm 4 mps 734 mmHg 89%
    05:00 +17°C° 0.3 mm 4 mps 734 mmHg 87%
    06:00 +17°C° 0.3 mm 4 mps 735 mmHg 85%
    07:00 +18°C° 0.3 mm 4 mps 735 mmHg 83%
    08:00 +19°C° 0.8 mm 4 mps 735 mmHg 81%
    09:00 +20°C° 0.8 mm 5 mps 735 mmHg 80%
    10:00 +20°C° 0.8 mm 5 mps 736 mmHg 78%
    11:00 +21°C° 1 mm 5 mps 736 mmHg 78%
    12:00 +21°C° 1 mm 5 mps 736 mmHg 78%
    13:00 +21°C° 1 mm 5 mps 736 mmHg 78%
    14:00 +21°C° 0.4 mm 4 mps 736 mmHg 76%
    15:00 +21°C° 0.4 mm 3 mps 736 mmHg 75%
    16:00 +21°C° 0.4 mm 2 mps 736 mmHg 73%
    17:00 +20°C° 0.1 mm 2 mps 736 mmHg 77%
    18:00 +18°C° 0.1 mm 2 mps 737 mmHg 82%
    19:00 +18°C° 0.1 mm 1 mps 737 mmHg 87%
    20:00 +17°C° 0 mm 2 mps 737 mmHg 86%
    21:00 +17°C° 0 mm 2 mps 738 mmHg 85%
    22:00 +17°C° 0 mm 2 mps 738 mmHg 85%
    23:00 +17°C° 0.1 mm 2 mps 738 mmHg 84%

    30 May, Thursday

    Time Temperature Precipitation Wind Pressure Humidity
    00:00 +16°C° 0.1 mm 2 mps 738 mmHg 83%
    01:00 +16°C° 0.1 mm 2 mps 739 mmHg 83%
    02:00 +16°C° 0 mm 2 mps 739 mmHg 82%
    03:00 +16°C° 0 mm 2 mps 738 mmHg 82%
    04:00 +15°C° 0 mm 2 mps 738 mmHg 82%
    05:00 +18°C° 0 mm 1 mps 739 mmHg 78%
    06:00 +19°C° 0 mm 1 mps 739 mmHg 75%
    07:00 +21°C° 0 mm 1 mps 739 mmHg 72%
    08:00 +22°C° 0 mm 1 mps 739 mmHg 67%
    09:00 +23°C° 0 mm 1 mps 739 mmHg 63%
    10:00 +24°C° 0 mm 2 mps 739 mmHg 58%
    11:00 +24°C° 0.1 mm 2 mps 739 mmHg 59%
    12:00 +25°C° 0.1 mm 2 mps 739 mmHg 60%
    13:00 +25°C° 0.1 mm 2 mps 739 mmHg 61%
    14:00 +24°C° 0.1 mm 2 mps 739 mmHg 63%
    15:00 +24°C° 0.1 mm 2 mps 739 mmHg 65%
    16:00 +23°C° 0.1 mm 1 mps 739 mmHg 67%
    17:00 +22°C° 0 mm 1 mps 738 mmHg 72%
    18:00 +21°C° 0 mm 1 mps 738 mmHg 77%
    19:00 +17°C° 0 mm 0 mps 738 mmHg 83%
    20:00 +17°C° 0 mm 0 mps 739 mmHg 84%
    21:00 +16°C° 0 mm 0 mps 739 mmHg 85%
    22:00 +16°C° 0 mm 0 mps 739 mmHg 86%
    23:00 +16°C° 0 mm 0 mps 739 mmHg 85%
    Show more